Date String (YYYY-MM-DD hh:mm:ss) UTC,Instrument flags,Ambient pressure (hPa),Sample flow (lpm),Bypass flow (lpm),Sample temperature (°C),Ambient temperature (°C),ASC tube jacket temperature (°C),LED temperature (°C),Box temperature (°C),Sample RH (%),Span deviation,Mass concentration (μg/m³),Mass concentration (μg/m³),Mass concentration (μg/m³)
DateTimeUTC,F1_M11,P_M11,Q1_M11,Q2_M11,T1_M11,T2_M11,T3_M11,T4_M11,T5_M11,U1_M11,ZSPAN_M11,X0_M11,X2_M11,X1_M11
2022-10-24 22:00:00,,0819.9,4.99,0.00,25.5,23.9,00.0,34.3,27.4,07.8,0000.0,0005.22,0001.46,0001.13
2022-10-24 22:01:00,,0819.9,5.00,0.00,25.5,23.9,00.0,34.3,27.4,07.9,0000.0,0005.25,0001.46,0001.12
2022-10-24 22:02:00,,0819.9,5.00,0.00,25.5,23.9,00.0,34.3,27.3,07.8,0000.0,0003.92,0001.42,0001.12
2022-10-24 22:03:00,,0819.9,5.00,0.00,25.5,23.9,00.0,34.3,27.3,07.9,0000.0,0003.62,0001.44,0001.14
2022-10-24 22:04:00,,0819.9,5.00,0.00,25.5,23.9,00.0,34.3,27.3,07.8,0000.0,0003.83,0001.45,0001.15
2022-10-24 22:05:00,,0819.9,5.00,0.00,25.5,23.9,00.0,34.3,27.3,07.8,0000.0,0003.80,0001.44,0001.15
2022-10-24 22:06:00,,0820.0,5.00,0.00,25.5,23.9,00.0,34.3,27.3,07.9,0000.0,0003.89,0001.46,0001.14
2022-10-24 22:07:00,,0819.9,5.01,0.00,25.5,23.9,00.0,34.3,27.3,07.9,0000.0,0003.83,0001.52,0001.15
2022-10-24 22:08:00,,0819.9,5.00,0.00,25.5,23.9,00.0,34.3,27.4,07.9,0000.0,0003.22,0001.56,0001.16
2022-10-24 22:09:00,,0820.0,5.01,0.00,25.5,23.9,00.0,34.3,27.4,07.8,0000.0,0003.37,0001.62,0001.19
2022-10-24 22:10:00,,0819.9,5.00,0.00,25.5,23.8,00.0,34.3,27.3,07.9,0000.0,0003.18,0001.62,0001.20
2022-10-24 22:11:00,,0819.9,5.00,0.00,25.5,23.8,00.0,34.3,27.3,07.9,0000.0,0003.30,0001.70,0001.22
2022-10-24 22:12:00,,0820.0,5.00,0.00,25.5,23.8,00.0,34.3,27.3,07.8,0000.0,0003.76,0001.75,0001.26
2022-10-24 22:13:00,,0820.0,5.00,0.00,25.4,23.8,00.0,34.3,27.3,07.9,0000.0,0004.40,0001.80,0001.28
2022-10-24 22:14:00,,0820.0,5.00,0.00,25.5,23.8,00.0,34.3,27.3,07.9,0000.0,0004.20,0001.81,0001.30
2022-10-24 22:15:00,,0820.0,5.00,0.00,25.4,23.8,00.0,34.3,27.4,07.9,0000.0,0004.06,0001.84,0001.32
2022-10-24 22:16:00,,0820.0,5.01,0.00,25.5,23.8,00.0,34.3,27.4,07.9,0000.0,0004.22,0001.88,0001.34
2022-10-24 22:17:00,,0820.1,5.00,0.00,25.5,23.8,00.0,34.3,27.4,07.9,0000.0,0004.24,0001.87,0001.36
2022-10-24 22:18:00,,0820.2,5.00,0.00,25.5,23.8,00.0,34.3,27.3,07.9,0000.0,0004.11,0001.83,0001.38
2022-10-24 22:19:00,,0820.2,5.00,0.00,25.4,23.8,00.0,34.3,27.3,07.9,0000.0,0004.12,0001.84,0001.40
2022-10-24 22:20:00,,0820.2,5.01,0.00,25.4,23.8,00.0,34.3,27.2,07.9,0000.0,0004.00,0001.81,0001.40
2022-10-24 22:21:00,,0820.2,5.00,0.00,25.4,23.7,00.0,34.3,27.2,07.9,0000.0,0004.04,0001.83,0001.41
2022-10-24 22:22:00,,0820.2,5.01,0.00,25.4,23.7,00.0,34.3,27.1,07.9,0000.0,0003.91,0001.81,0001.43
2022-10-24 22:23:00,,0820.2,5.00,0.00,25.4,23.7,00.0,34.3,27.2,07.9,0000.0,0003.46,0001.78,0001.44
2022-10-24 22:24:00,,0820.2,5.00,0.00,25.4,23.7,00.0,34.3,27.2,07.9,0000.0,0002.93,0001.76,0001.44
2022-10-24 22:25:00,,0820.2,5.00,0.00,25.4,23.7,00.0,34.3,27.2,07.9,0000.0,0003.07,0001.77,0001.45
2022-10-24 22:26:00,,0820.2,4.99,0.00,25.4,23.7,00.0,34.2,27.2,07.9,0000.0,0003.14,0001.80,0001.44
2022-10-24 22:27:00,,0820.2,4.99,0.00,25.4,23.7,00.0,34.2,27.2,07.9,0000.0,0004.05,0001.80,0001.46
2022-10-24 22:28:00,,0820.2,5.00,0.00,25.3,23.6,00.0,34.2,27.2,07.9,0000.0,0004.38,0001.81,0001.47
2022-10-24 22:29:00,,0820.2,5.00,0.00,25.3,23.6,00.0,34.2,27.1,07.9,0000.0,0004.27,0001.79,0001.47
2022-10-24 22:30:00,,0820.2,5.00,0.00,25.3,23.6,00.0,34.2,27.1,07.9,0000.0,0004.27,0001.79,0001.48
2022-10-24 22:31:00,,0820.2,5.01,0.00,25.3,23.6,00.0,34.2,27.1,08.0,0000.0,0004.90,0001.78,0001.49
2022-10-24 22:32:00,,0820.3,5.01,0.00,25.3,23.6,00.0,34.2,27.1,08.0,0000.0,0005.36,0001.78,0001.48
2022-10-24 22:33:00,,0820.2,4.99,0.00,25.3,23.6,00.0,34.2,27.0,08.0,0000.0,0005.50,0001.77,0001.47
2022-10-24 22:34:00,,0820.3,5.00,0.00,25.3,23.6,00.0,34.2,27.1,08.0,0000.0,0005.55,0001.75,0001.46
2022-10-24 22:35:00,,0820.2,4.99,0.00,25.3,23.6,00.0,34.2,27.1,07.9,0000.0,0006.36,0001.75,0001.45
2022-10-24 22:36:00,,0820.3,4.99,0.00,25.3,23.6,00.0,34.2,27.0,07.9,0000.0,0006.24,0001.77,0001.44
2022-10-24 22:37:00,,0820.3,5.02,0.00,25.2,23.6,00.0,34.2,27.0,08.0,0000.0,0006.33,0001.77,0001.45
2022-10-24 22:38:00,,0820.3,5.00,0.00,25.3,23.6,00.0,34.1,27.1,08.0,0000.0,0005.35,0001.79,0001.44
2022-10-24 22:39:00,,0820.3,5.00,0.00,25.3,23.6,00.0,34.1,27.1,08.0,0000.0,0005.02,0001.79,0001.44
2022-10-24 22:40:00,,0820.3,5.00,0.00,25.3,23.6,00.0,34.1,27.1,08.0,0000.0,0005.10,0001.82,0001.43
2022-10-24 22:41:00,,0820.3,5.00,0.00,25.3,23.6,00.0,34.1,27.1,08.0,0000.0,0005.09,0001.84,0001.42
2022-10-24 22:42:00,,0820.3,5.00,0.00,25.2,23.5,00.0,34.1,27.0,08.0,0000.0,0004.54,0001.85,0001.41
2022-10-24 22:43:00,,0820.2,4.99,0.00,25.2,23.5,00.0,34.1,27.0,08.0,0000.0,0004.30,0001.87,0001.41
2022-10-24 22:44:00,,0820.3,5.00,0.00,25.2,23.5,00.0,34.1,27.0,08.0,0000.0,0004.32,0001.89,0001.42
2022-10-24 22:45:00,,0820.2,4.99,0.00,25.2,23.5,00.0,34.1,27.0,08.0,0000.0,0004.57,0001.93,0001.42
2022-10-24 22:46:00,,0820.3,5.00,0.00,25.2,23.5,00.0,34.1,27.0,08.1,0000.0,0004.34,0001.95,0001.41
2022-10-24 22:47:00,,0820.3,5.01,0.00,25.2,23.5,00.0,34.1,26.9,08.1,0000.0,0004.35,0001.93,0001.41
2022-10-24 22:48:00,,0820.2,5.00,0.00,25.2,23.5,00.0,34.1,27.0,08.2,0000.0,0004.23,0001.89,0001.39
2022-10-24 22:49:00,,0820.2,5.00,0.00,25.2,23.5,00.0,34.1,27.0,08.2,0000.0,0004.37,0001.90,0001.38
2022-10-24 22:50:00,,0820.2,5.01,0.00,25.2,23.5,00.0,34.1,27.0,08.2,0000.0,0004.34,0001.90,0001.37
2022-10-24 22:51:00,,0820.2,5.01,0.00,25.2,23.5,00.0,34.1,27.0,08.2,0000.0,0004.37,0001.85,0001.37
2022-10-24 22:52:00,,0820.2,5.00,0.00,25.2,23.5,00.0,34.1,27.0,08.2,0000.0,0004.83,0001.85,0001.36
2022-10-24 22:53:00,,0820.3,5.00,0.00,25.1,23.4,00.0,34.1,26.9,08.2,0000.0,0004.84,0001.88,0001.35
2022-10-24 22:54:00,,0820.3,4.99,0.00,25.1,23.4,00.0,34.1,26.9,08.2,0000.0,0004.66,0001.86,0001.34
2022-10-24 22:55:00,,0820.3,4.99,0.00,25.1,23.5,00.0,34.0,26.9,08.3,0000.0,0004.85,0001.83,0001.33
2022-10-24 22:56:00,,0820.3,5.00,0.00,25.1,23.5,00.0,34.0,26.9,08.3,0000.0,0004.81,0001.79,0001.32
2022-10-24 22:57:00,,0820.3,5.03,0.00,25.1,23.5,00.0,34.0,27.0,08.3,0000.0,0004.08,0001.75,0001.32
2022-10-24 22:58:00,,0820.3,5.00,0.00,25.1,23.5,00.0,34.0,26.9,08.3,0000.0,0003.94,0001.72,0001.32
2022-10-24 22:59:00,,0820.3,5.00,0.00,25.1,23.5,00.0,34.0,26.9,08.2,0000.0,0003.92,0001.71,0001.32
